Flag for Switzerland Weather past 2 weeks in Altdorf, Uri, Switzerland

Now
54 °F

Cool.


Feels Like: 54 °F
Forecast: 41 / 58 °F
Wind: 2 mph from Southeast

Location: Altdorf

Current Time: May 22, 2015 at 8:21:34 PM

Latest Report: May 22, 2015 at 7:00 PM


Visibility: N/A

Pressure: 30.15 "Hg

Humidity: 83%

Dew point: 49 °F

Location of AltdorfLocation

Historic Weather in Altdorf — Graph

°F

Altdorf temperature yesterday

Maximum temperature yesterday: 49 °F (at 4:00 PM)
Minimum temperature yesterday: 43 °F (at 6:00 AM)
Average temperature yesterday: 46 °F

Past Weeks' High & Low Weather Summary

 TemperatureHumidityPressure
High79 °F (May 13, 5:00 PM)95% (May 9, 3:00 AM)30.39 "Hg (May 9, 3:00 AM)
Low42 °F (May 15, 5:00 PM)32% (May 14, 1:00 AM)29.72 "Hg (May 18, 6:00 PM)
Average57 °F73%30.09 "Hg
* Reported May 7 7:00 PM — May 22 7:00 PM, Altdorf, Weather by CustomWeather, © 2015

Note: Actual official high and low records may vary slightly from our data, if they occured in-between our weather recording intervals... More about our weather records

Advertising

Altdorf weather history for previous 24 hours

 ConditionsComfort  
Time TempWeatherWind HumidityBarometerVisibility
7:00 PM
Fri, May 22
54 °FCool.2 mph83%30.15 "HgN/A
6:00 PM55 °FCool.1 mph69%30.16 "HgN/A
5:00 PM54 °FOvercast.3 mph73%30.18 "Hg9 mi
4:00 PM54 °FCool.1 mph75%30.19 "HgN/A
3:00 PM53 °FCool.2 mph77%30.22 "HgN/A
2:00 PM53 °FOvercast.3 mph77%30.23 "Hg9 mi
1:00 PM53 °FCool.3 mph77%30.24 "HgN/A
12:00 PM53 °FCool.2 mph74%30.25 "HgN/A
11:00 AM51 °FOvercast.5 mph77%30.26 "Hg10 mi
10:00 AM50 °FCool.3 mph82%30.27 "HgN/A
9:00 AM49 °FCool.3 mph83%30.28 "HgN/A
8:00 AM48 °FLight rain. Overcast.2 mph91%30.28 "Hg9 mi
7:00 AM47 °FCool.2 mph93%30.29 "HgN/A
6:00 AM47 °FCool.No wind93%30.29 "HgN/A
5:00 AM47 °FOvercast.No wind92%30.29 "Hg9 mi
4:00 AM47 °FCool.1 mph93%30.31 "HgN/A
3:00 AM47 °FCool.1 mph93%30.32 "HgN/A
2:00 AM47 °FDrizzle. Overcast.2 mph93%30.33 "Hg5 mi
1:00 AM46 °FCool.1 mph93%30.33 "HgN/A
12:00 AM46 °FCool.1 mph93%30.33 "HgN/A
10:00 PM
Thu, May 21
47 °FCool.2 mph88%30.34 "HgN/A
9:00 PM47 °FCool.1 mph92%30.32 "HgN/A
8:00 PM48 °FOvercast.1 mph90%30.31 "Hg9 mi
Weather by CustomWeather, © 2015

See weather overviewHow to use our weather pages